F4ELU-13 Weather Reports


time (UTC)temp
F
wind
direction
speed
knots
gust
knots
rain 1hr
in
rain 24hr
in
rain mn
in
humidity
%
barometer
mb
20260505040004 53 0 0.0 0.0 0.04 0.22 0.13 99 1008.9
20260505035403 53 0 0.0 0.0 0.04 0.25 0.13 99 1009.1
20260505034503 53 0 0.0 0.0 0.02 0.26 0.12 99 1009.0
20260505033603 53 0 0.0 0.0 0.04 0.30 0.12 99 1009.0
20260505032703 53 0 0.0 0.0 0.02 0.31 0.11 99 1009.1
20260505031803 53 0 0.0 0.0 0.02 0.34 0.11 99 1009.1
20260505030903 52 0 0.0 0.0 0.01 0.34 0.09 99 1009.2
20260505030003 52 0 0.0 0.0 0.01 0.35 0.09 99 1009.2
20260505025403 52 0 0.0 0.0 0.01 0.35 0.09 99 1009.3
20260505024503 52 0 0.0 0.0 0.01 0.35 0.09 99 1009.3
20260505023603 52 0 0.0 0.0 0.00 0.34 0.08 99 1009.3
20260505022703 52 0 0.0 0.0 0.00 0.34 0.08 99 1009.2
20260505021803 53 0 0.0 0.0 0.01 0.35 0.08 99 1009.3
20260505020903 53 0 0.0 0.0 0.01 0.35 0.08 99 1009.1
20260505020003 53 0 0.0 0.0 0.01 0.37 0.08 99 1009.3
20260505015403 53 0 0.0 0.0 0.01 0.38 0.08 99 1009.2
20260505014503 53 0 0.0 0.0 0.01 0.40 0.08 99 1009.3
20260505013603 53 0 0.0 0.0 0.01 0.41 0.08 99 1009.3
20260505012703 53 0 0.0 0.0 0.01 0.41 0.08 99 1009.4
20260505011803 53 0 0.0 0.0 0.01 0.40 0.07 99 1009.6
20260505010903 53 0 0.0 0.0 0.01 0.40 0.07 99 1009.5
20260505010003 53 0 0.0 0.0 0.01 0.40 0.07 99 1009.9
20260505005403 53 157 0.0 1.7 0.02 0.40 0.07 99 1009.9
20260505004503 53 154 0.9 1.7 0.02 0.40 0.07 99 1010.0
20260505003603 53 0 0.0 0.0 0.04 0.40 0.07 99 1010.0
20260505002703 53 0 0.0 0.0 0.04 0.40 0.07 99 1010.2
20260505001803 54 0 0.0 0.0 0.02 0.39 0.06 99 1010.4
20260505000903 54 0 0.0 0.0 0.04 0.39 0.06 99 1010.3
20260505000003 54 180 0.0 1.7 0.06 0.39 0.06 98 1010.4
20260504235403 54 181 0.0 1.7 0.05 0.38 0.05 98 1010.4
20260504234503 54 194 0.0 3.5 0.05 0.38 0.05 97 1010.5
20260504233603 54 168 1.7 3.5 0.04 0.37 0.04 97 1010.6
20260504232703 54 203 0.0 5.2 0.04 0.37 0.04 96 1010.6
20260504231803 55 199 0.9 6.1 0.04 0.37 0.04 95 1010.8
20260504230903 55 225 0.0 1.7 0.02 0.35 0.02 94 1010.8
20260504230004 55 0 0.0 0.0 0.00 0.33 0.00 92 1010.7
20260504225403 55 0 0.0 0.0 0.00 0.33 0.33 92 1010.7
20260504224503 55 0 0.0 0.0 0.00 0.33 0.33 93 1010.7
20260504223603 55 0 0.0 0.0 0.00 0.33 0.33 92 1010.7
20260504222703 55 0 0.0 0.0 0.00 0.33 0.33 92 1010.7
20260504221803 55 0 0.0 0.0 0.00 0.33 0.33 92 1010.5
20260504220903 55 0 0.0 0.0 0.00 0.33 0.33 92 1010.6
20260504220003 55 0 0.0 0.0 0.00 0.33 0.33 92 1010.5
20260504215403 55 0 0.0 0.0 0.00 0.33 0.33 92 1010.5
20260504214503 55 0 0.0 0.0 0.00 0.33 0.33 92 1010.6
20260504213603 56 0 0.0 0.0 0.00 0.33 0.33 92 1010.6
20260504212703 56 0 0.0 0.0 0.00 0.33 0.33 90 1010.6
20260504211803 56 0 0.0 0.0 0.00 0.33 0.33 90 1010.7
20260504210903 56 0 0.0 0.0 0.00 0.33 0.33 91 1010.8
20260504210004 56 0 0.0 0.0 0.00 0.33 0.33 91 1010.7
20260504205403 56 0 0.0 0.0 0.00 0.33 0.33 92 1010.8
20260504204503 56 0 0.0 0.0 0.00 0.33 0.33 91 1010.8
20260504203603 56 0 0.0 0.0 0.00 0.33 0.33 90 1010.9
20260504202703 56 0 0.0 0.0 0.00 0.33 0.33 89 1010.9
20260504201803 57 0 0.0 0.0 0.00 0.33 0.33 88 1010.9
20260504200903 57 172 0.0 1.7 0.00 0.33 0.33 87 1010.9
20260504200003 58 174 0.9 3.5 0.00 0.33 0.33 85 1010.8
20260504195403 58 190 1.7 7.0 0.00 0.33 0.33 84 1010.9
20260504194503 58 188 1.7 6.1 0.00 0.33 0.33 84 1010.9
20260504193603 59 182 1.7 7.8 0.00 0.33 0.33 83 1010.8
20260504192703 59 183 2.6 7.0 0.00 0.33 0.33 83 1010.8
20260504191803 59 191 3.5 7.0 0.00 0.33 0.33 82 1010.7
20260504190903 59 185 1.7 5.2 0.00 0.33 0.33 83 1010.8
20260504190003 59 171 0.0 3.5 0.00 0.33 0.33 84 1010.8
20260504185403 58 0 0.0 0.0 0.00 0.33 0.33 86 1010.7
20260504184503 59 143 0.0 7.8 0.00 0.33 0.33 85 1010.8
20260504183603 58 171 4.3 7.8 0.00 0.33 0.33 84 1010.8
20260504182703 59 0 0.0 0.0 0.00 0.33 0.33 87 1010.7
20260504181803 60 127 0.0 1.7 0.00 0.33 0.33 86 1010.8
20260504180903 60 0 0.0 0.0 0.00 0.33 0.33 87 1010.7
20260504180003 60 90 0.0 1.7 0.00 0.33 0.33 86 1010.7
20260504175403 60 87 0.9 1.7 0.00 0.33 0.33 85 1010.7
20260504174503 60 98 0.0 3.5 0.00 0.33 0.33 86 1010.7
20260504173603 61 104 0.0 5.2 0.00 0.33 0.33 84 1010.7
20260504172703 61 105 0.0 5.2 0.00 0.33 0.33 83 1010.8
20260504171803 62 103 0.9 9.6 0.00 0.33 0.33 82 1010.7
20260504170903 62 99 3.5 9.6 0.00 0.33 0.33 80 1010.7
20260504150903 66 146 2.6 7.8 0.00 0.33 0.33 74 1010.9
20260504140903 63 183 1.7 9.6 0.00 0.33 0.33 81 1011.8
20260504081803 53 115 0.9 5.2 0.00 0.34 0.33 99 1013.0
20260504080903 52 90 0.0 1.7 0.00 0.34 0.33 99 1013.1
20260504050003 50 0 0.0 0.0 0.04 0.28 0.27 99 1012.9
20260504045403 50 0 0.0 0.0 0.06 0.28 0.27 99 1012.9
20260504044504 50 0 0.0 0.0 0.08 0.28 0.27 99 1012.9
20260504043603 50 0 0.0 0.0 0.11 0.27 0.26 99 1013.0
20260504042703 50 0 0.0 0.0 0.13 0.27 0.26 99 1013.0
20260504041803 50 0 0.0 0.0 0.17 0.27 0.26 99 1013.1
20260504040903 50 0 0.0 0.0 0.17 0.26 0.25 99 1013.1